When you browse on this site, cookies collect data to enhance your experience and personalize the content and advertising you see.
Visit our Privacy Policy to learn more. By continuing to use the site, you agree to this use of cookies and data.
  • In Hungary
  • List of Countries
  • For 7 days
  • Water Temperature
  • Satellite Maps
  • Weather Map
  • News
  • Weather Widgets
  • user-avatar
    Login

    Hourly Weather Cenon

    Today, 20 March, Wednesday

    Time Temperature Precipitation Wind Pressure Humidity
    00:00 +5°C° 0 mm 2 mps 771 mmHg 82%
    01:00 +5°C° 0 mm 2 mps 771 mmHg 82%
    02:00 +4°C° 0 mm 2 mps 771 mmHg 83%
    03:00 +5°C° 0 mm 1 mps 771 mmHg 83%
    04:00 +5°C° 0 mm 1 mps 771 mmHg 83%
    05:00 +4°C° 0 mm 1 mps 771 mmHg 84%
    06:00 +4°C° 0 mm 1 mps 772 mmHg 84%
    07:00 +5°C° 0 mm 2 mps 772 mmHg 75%
    08:00 +7°C° 0 mm 2 mps 772 mmHg 66%
    09:00 +9°C° 0 mm 2 mps 772 mmHg 57%
    10:00 +10°C° 0 mm 2 mps 772 mmHg 50%
    11:00 +12°C° 0 mm 3 mps 772 mmHg 43%
    12:00 +14°C° 0 mm 3 mps 772 mmHg 37%
    13:00 +14°C° 0 mm 3 mps 772 mmHg 36%
    14:00 +14°C° 0 mm 3 mps 771 mmHg 36%
    15:00 +16°C° 0 mm 3 mps 771 mmHg 36%
    16:00 +13°C° 0 mm 3 mps 771 mmHg 43%
    17:00 +12°C° 0 mm 3 mps 771 mmHg 49%
    18:00 +12°C° 0 mm 2 mps 771 mmHg 56%
    19:00 +10°C° 0 mm 3 mps 771 mmHg 60%
    20:00 +9°C° 0 mm 3 mps 771 mmHg 64%
    21:00 +8°C° 0 mm 3 mps 771 mmHg 68%
    22:00 +7°C° 0 mm 3 mps 771 mmHg 71%
    23:00 +7°C° 0 mm 2 mps 771 mmHg 74%

    Tomorrow, 21 March, Thursday

    Time Temperature Precipitation Wind Pressure Humidity
    00:00 +6°C° 0 mm 2 mps 771 mmHg 77%
    01:00 +6°C° 0 mm 2 mps 771 mmHg 79%
    02:00 +5°C° 0 mm 2 mps 771 mmHg 82%
    03:00 +5°C° 0 mm 2 mps 770 mmHg 84%
    04:00 +5°C° 0 mm 2 mps 770 mmHg 86%
    05:00 +5°C° 0 mm 1 mps 770 mmHg 87%
    06:00 +5°C° 0 mm 1 mps 770 mmHg 89%
    07:00 +6°C° 0 mm 2 mps 770 mmHg 80%
    08:00 +8°C° 0 mm 2 mps 771 mmHg 72%
    09:00 +9°C° 0 mm 2 mps 771 mmHg 63%
    10:00 +12°C° 0 mm 2 mps 770 mmHg 56%
    11:00 +14°C° 0 mm 2 mps 770 mmHg 48%
    12:00 +16°C° 0 mm 2 mps 770 mmHg 41%
    13:00 +17°C° 0 mm 2 mps 769 mmHg 40%
    14:00 +17°C° 0 mm 2 mps 769 mmHg 39%
    15:00 +18°C° 0 mm 2 mps 768 mmHg 38%
    16:00 +16°C° 0 mm 2 mps 768 mmHg 44%
    17:00 +15°C° 0 mm 1 mps 768 mmHg 50%
    18:00 +13°C° 0 mm 1 mps 768 mmHg 55%
    19:00 +12°C° 0 mm 1 mps 768 mmHg 60%
    20:00 +11°C° 0 mm 1 mps 769 mmHg 64%
    21:00 +10°C° 0 mm 1 mps 769 mmHg 69%
    22:00 +9°C° 0 mm 1 mps 769 mmHg 70%
    23:00 +9°C° 0 mm 1 mps 769 mmHg 70%

    Day after tomorrow, 22 March, Friday

    Time Temperature Precipitation Wind Pressure Humidity
    00:00 +8°C° 0 mm 1 mps 768 mmHg 71%
    01:00 +8°C° 0 mm 1 mps 768 mmHg 72%
    02:00 +8°C° 0 mm 1 mps 768 mmHg 72%
    03:00 +7°C° 0 mm 1 mps 768 mmHg 72%
    04:00 +7°C° 0 mm 1 mps 768 mmHg 74%
    05:00 +7°C° 0 mm 1 mps 768 mmHg 76%
    06:00 +6°C° 0 mm 1 mps 768 mmHg 77%
    07:00 +7°C° 0 mm 2 mps 768 mmHg 70%
    08:00 +10°C° 0 mm 2 mps 768 mmHg 64%
    09:00 +13°C° 0 mm 2 mps 768 mmHg 57%
    10:00 +15°C° 0 mm 2 mps 768 mmHg 51%
    11:00 +17°C° 0 mm 2 mps 768 mmHg 45%
    12:00 +19°C° 0 mm 2 mps 768 mmHg 39%
    13:00 +21°C° 0 mm 1 mps 768 mmHg 36%
    14:00 +22°C° 0 mm 1 mps 767 mmHg 34%
    15:00 +22°C° 0 mm 1 mps 767 mmHg 32%
    16:00 +20°C° 0 mm 1 mps 767 mmHg 38%
    17:00 +19°C° 0 mm 1 mps 767 mmHg 44%
    18:00 +16°C° 0 mm 1 mps 767 mmHg 50%
    19:00 +14°C° 0 mm 1 mps 767 mmHg 54%
    20:00 +13°C° 0 mm 1 mps 768 mmHg 58%
    21:00 +12°C° 0 mm 1 mps 768 mmHg 62%
    22:00 +11°C° 0 mm 1 mps 768 mmHg 63%
    23:00 +11°C° 0 mm 1 mps 768 mmHg 64%

    23 March, Saturday

    Time Temperature Precipitation Wind Pressure Humidity
    00:00 +11°C° 0 mm 1 mps 768 mmHg 65%
    01:00 +10°C° 0 mm 1 mps 768 mmHg 66%
    02:00 +10°C° 0 mm 1 mps 768 mmHg 68%
    03:00 +9°C° 0 mm 1 mps 768 mmHg 69%
    04:00 +9°C° 0 mm 1 mps 768 mmHg 70%
    05:00 +8°C° 0 mm 1 mps 768 mmHg 72%
    06:00 +8°C° 0 mm 1 mps 768 mmHg 73%
    07:00 +10°C° 0 mm 1 mps 768 mmHg 66%
    08:00 +13°C° 0 mm 1 mps 768 mmHg 59%
    09:00 +15°C° 0 mm 1 mps 768 mmHg 52%
    10:00 +18°C° 0 mm 1 mps 768 mmHg 48%
    11:00 +18°C° 0 mm 2 mps 768 mmHg 44%
    12:00 +20°C° 0 mm 2 mps 767 mmHg 40%
    13:00 +20°C° 0 mm 2 mps 767 mmHg 39%
    14:00 +21°C° 0 mm 2 mps 767 mmHg 38%
    15:00 +21°C° 0 mm 2 mps 766 mmHg 37%
    16:00 +19°C° 0 mm 2 mps 766 mmHg 42%
    17:00 +18°C° 0 mm 2 mps 766 mmHg 47%
    18:00 +18°C° 0 mm 1 mps 766 mmHg 53%
    19:00 +15°C° 0 mm 1 mps 766 mmHg 58%
    20:00 +14°C° 0 mm 2 mps 767 mmHg 63%
    21:00 +13°C° 0 mm 2 mps 767 mmHg 68%
    22:00 +12°C° 0 mm 2 mps 767 mmHg 72%
    23:00 +11°C° 0 mm 1 mps 767 mmHg 76%

    24 March, Sunday

    Time Temperature Precipitation Wind Pressure Humidity
    00:00 +11°C° 0 mm 1 mps 766 mmHg 80%
    01:00 +10°C° 0 mm 1 mps 766 mmHg 82%
    02:00 +10°C° 0 mm 1 mps 766 mmHg 84%
    03:00 +9°C° 0 mm 1 mps 766 mmHg 86%
    04:00 +9°C° 0 mm 1 mps 766 mmHg 87%
    05:00 +8°C° 0 mm 2 mps 766 mmHg 88%
    06:00 +7°C° 0 mm 2 mps 766 mmHg 89%
    07:00 +9°C° 0 mm 2 mps 767 mmHg 81%
    08:00 +12°C° 0 mm 2 mps 767 mmHg 72%
    09:00 +14°C° 0 mm 2 mps 767 mmHg 64%
    10:00 +16°C° 0 mm 3 mps 767 mmHg 59%
    11:00 +18°C° 0 mm 3 mps 767 mmHg 53%
    12:00 +19°C° 0 mm 3 mps 767 mmHg 48%
    13:00 +19°C° 0 mm 3 mps 766 mmHg 48%
    14:00 +20°C° 0 mm 4 mps 766 mmHg 48%
    15:00 +20°C° 0 mm 4 mps 766 mmHg 49%
    16:00 +19°C° 0 mm 4 mps 766 mmHg 54%
    17:00 +17°C° 0 mm 3 mps 766 mmHg 60%
    18:00 +16°C° 0 mm 3 mps 766 mmHg 66%
    19:00 +14°C° 0 mm 3 mps 766 mmHg 68%
    20:00 +13°C° 0 mm 4 mps 766 mmHg 71%
    21:00 +12°C° 0 mm 4 mps 767 mmHg 73%
    22:00 +12°C° 0 mm 4 mps 767 mmHg 75%
    23:00 +11°C° 0 mm 3 mps 766 mmHg 77%

    25 March, Monday

    Time Temperature Precipitation Wind Pressure Humidity
    00:00 +10°C° 0 mm 3 mps 766 mmHg 79%
    01:00 +10°C° 0 mm 3 mps 766 mmHg 81%
    02:00 +10°C° 0 mm 3 mps 766 mmHg 82%
    03:00 +9°C° 0 mm 3 mps 766 mmHg 84%
    04:00 +9°C° 0 mm 3 mps 766 mmHg 84%
    05:00 +9°C° 0 mm 3 mps 766 mmHg 84%
    06:00 +8°C° 0 mm 3 mps 766 mmHg 84%
    07:00 +8°C° 0 mm 4 mps 767 mmHg 78%
    08:00 +11°C° 0 mm 4 mps 767 mmHg 71%
    09:00 +12°C° 0 mm 4 mps 767 mmHg 65%
    10:00 +14°C° 0 mm 4 mps 767 mmHg 59%
    11:00 +15°C° 0 mm 5 mps 767 mmHg 53%
    12:00 +17°C° 0 mm 5 mps 767 mmHg 47%
    13:00 +17°C° 0 mm 5 mps 766 mmHg 44%
    14:00 +17°C° 0 mm 5 mps 766 mmHg 40%
    15:00 +19°C° 0 mm 5 mps 765 mmHg 37%
    16:00 +16°C° 0 mm 5 mps 765 mmHg 42%
    17:00 +15°C° 0 mm 5 mps 765 mmHg 46%
    18:00 +13°C° 0 mm 4 mps 765 mmHg 50%
    19:00 +13°C° 0 mm 5 mps 765 mmHg 54%
    20:00 +12°C° 0 mm 5 mps 766 mmHg 58%
    21:00 +10°C° 0 mm 5 mps 766 mmHg 61%
    22:00 +9°C° 0 mm 5 mps 767 mmHg 64%
    23:00 +10°C° 0 mm 4 mps 767 mmHg 66%
    Show more